User: anonymous   Login
Location: Saddleback Butte
(34.6776°N, 117.8050°W)
Time: 14:44:10
(UTC-07:00)
Language:

Cosmos 1862 Rocket - Orbit

View from above orbital plane
View from above orbital plane
View from above satellite
View from above satellite

Ground track
Ground track

The orbit data is extracted from the following two-line orbital elements,

1 18153U 87055B   16243.97220921  .00000101  00000-0  94263-5 0  9992
2 18153  82.5017  16.9358 0020648 322.8828  37.0957 14.83130076575346
Epoch (UTC): 30 August 2016 23:19:58
Eccentricity: 0.0020648
inclination: 82.5017°
perigee height: 605 km
apogee height: 634 km
right ascension of ascending node: 16.9358°
argument of perigee: 322.8828°
revolutions per day: 14.83130076
mean anomaly at epoch: 37.0957°
orbit number at epoch: 57534

The dashed part of the orbit path shows where the satellite is in the earth's shadow,  

DLR